Greenville, MS

5:33 PM CST on February 27, 2017 (GMT -0600)
Mid Delta Regional

Weather History for KGLH - May, 2013

Change the Weather History Date:

Tuesday, May 14, 2013

  Actual Average Record
Temperature  
Mean Temperature 70 °F 72 °F  
Max Temperature 83 °F 82 °F 92 °F (1962)
Min Temperature 56 °F 62 °F 46 °F (1971)
Degree Days  
Heating Degree Days 0 0  
Month to date heating degree days 52 10  
Since 1 July heating degree days 2695 2771  
Cooling Degree Days 5 7  
Month to date cooling degree days 20 82  
Year to date cooling degree days 99 168  
Growing Degree Days 20 (Base 50)    
Moisture  
Dew Point 54 °F    
Average Humidity 60    
Maximum Humidity 86    
Minimum Humidity 33    
Precipitation  
Precipitation 0.00 in 0.17 in 1.38 in (1930)
Month to date precipitation 1.22 2.48  
Year to date precipitation 21.88 21.83  
Sea Level Pressure  
Sea Level Pressure 30.16 in    
Wind  
Wind Speed 10 mph (SSW)    
Max Wind Speed 18 mph    
Max Gust Speed 24 mph    
Visibility 10 miles    
Events      
T = Trace of Precipitation, MM = Missing Value Source: NWS Daily Summary

Daily Weather History Graph

Daily Weather History Graph

Search for Another Location

Airport or City:

Trip Planner

Search our weather history database for the weather conditions in past years. The results will help you decide how hot, cold, wet, or windy it might be!

Date:

Astronomy

May. 14, 2013 Rise Set
Actual Time 6:04 AM CDT 7:56 PM CDT
Civil Twilight 5:36 AM CDT 8:24 PM CDT
Nautical Twilight 5:03 AM CDT 8:57 PM CDT
Astronomical Twilight 4:28 AM CDT 9:32 PM CDT
Moon 9:43 AM CDT (5/14) 11:46 PM CDT (5/14)
Length of Visible Light 14h 47m
Length of Day
13h 52m
Waxing Crescent, 19% of the Moon is Illuminated
May 14
Waxing Crescent
May 17
First Quarter
May 24
Full
May 31
Last Quarter
Jun 8
New

Hourly Weather History & Observations

Time (CDT) Temp. Heat Index Dew Point Humidity Pressure Visibility Wind Dir Wind Speed Gust Speed Precip Events Conditions
12:53 AM 57.9 °F - 53.1 °F 84% 30.17 in 10.0 mi South 8.1 mph - N/A   Clear
1:53 AM 57.0 °F - 52.0 °F 83% 30.17 in 10.0 mi South 8.1 mph - N/A   Clear
2:53 AM 57.0 °F - 51.1 °F 81% 30.16 in 10.0 mi South 8.1 mph - N/A   Clear
3:53 AM 57.0 °F - 51.1 °F 81% 30.16 in 10.0 mi SSW 6.9 mph - N/A   Clear
4:53 AM 59.0 °F - 51.1 °F 75% 30.16 in 10.0 mi SW 8.1 mph - N/A   Clear
5:53 AM 60.1 °F - 52.0 °F 75% 30.17 in 10.0 mi SW 8.1 mph - N/A   Clear
6:53 AM 62.1 °F - 52.0 °F 70% 30.19 in 10.0 mi SW 5.8 mph - N/A   Clear
7:53 AM 66.0 °F - 54.0 °F 65% 30.20 in 10.0 mi SW 10.4 mph - N/A   Clear
8:53 AM 70.0 °F - 55.0 °F 59% 30.22 in 10.0 mi SW 9.2 mph - N/A   Clear
9:53 AM 73.0 °F - 55.0 °F 53% 30.22 in 10.0 mi SW 9.2 mph - N/A   Clear
10:53 AM 75.9 °F - 55.9 °F 50% 30.22 in 10.0 mi SW 11.5 mph - N/A   Clear
11:53 AM 78.1 °F - 57.0 °F 48% 30.21 in 10.0 mi SW 12.7 mph 19.6 mph N/A   Clear
12:53 PM 80.1 °F 80.2 °F 55.9 °F 43% 30.19 in 10.0 mi SSW 15.0 mph - N/A   Clear
1:53 PM 82.0 °F 81.4 °F 55.0 °F 39% 30.17 in 10.0 mi SW 16.1 mph 21.9 mph N/A   Clear
2:53 PM 82.9 °F - 52.0 °F 34% 30.15 in 10.0 mi SW 16.1 mph - N/A   Clear
3:53 PM 82.9 °F - 50.0 °F 32% 30.12 in 10.0 mi SW 15.0 mph 23.0 mph N/A   Clear
4:53 PM 82.9 °F - 52.0 °F 34% 30.12 in 10.0 mi SW 12.7 mph - N/A   Clear
5:53 PM 82.0 °F - 51.1 °F 34% 30.10 in 10.0 mi SW 13.8 mph - N/A   Clear
6:53 PM 79.0 °F - 53.1 °F 40% 30.10 in 10.0 mi SW 9.2 mph - N/A   Clear
7:53 PM 71.1 °F - 55.0 °F 57% 30.10 in 10.0 mi South 6.9 mph - N/A   Clear
8:53 PM 66.9 °F - 55.0 °F 66% 30.11 in 10.0 mi South 9.2 mph - N/A   Clear
9:53 PM 64.0 °F - 55.9 °F 75% 30.12 in 10.0 mi South 8.1 mph - N/A   Clear
10:53 PM 64.0 °F - 55.9 °F 75% 30.12 in 10.0 mi South 9.2 mph - N/A   Clear
11:53 PM 62.1 °F - 55.9 °F 80% 30.12 in 10.0 mi South 8.1 mph - N/A   Clear